Flag for Germany Weather past 2 weeks in Witzenhausen, Hesse, Germany

Now
77 °F

Passing clouds.


Feels Like: 79 °F
Forecast: 64 / 79 °F
Wind: 8 mph from East

Location: Kassel / Calden

Current Time: Jul 28, 2014 at 12:53:34 PM

Latest Report: Jul 28, 2014 at 12:20 PM


Visibility: N/A

Pressure: 29.92 "Hg

Humidity: 61%

Dew point: 63 °F

Location of WitzenhausenLocation

Historic Weather in Witzenhausen — Graph

°F

Witzenhausen temperature yesterday

Maximum temperature yesterday: 79 °F (at 2:50 PM)
Minimum temperature yesterday: 57 °F (at 5:50 AM)
Average temperature yesterday: 72 °F

Past Weeks' High & Low Weather Summary

 TemperatureHumidityPressure
High90 °F (Jul 19, 4:50 PM)100% (Jul 17, 5:50 AM)30.21 "Hg (Jul 17, 5:50 AM)
Low55 °F (Jul 15, 5:50 AM)31% (Jul 19, 1:20 PM)29.74 "Hg (Jul 13, 4:50 PM)
Average71 °F70%30.00 "Hg
* Reported Jul 13 11:20 AM — Jul 28 11:50 AM, Witzenhausen, Weather by CustomWeather, © 2014

Note: Actual official high and low records may vary slightly from our data, if they occured in-between our weather recording intervals... More about our weather records

Advertising

Witzenhausen weather history for previous 24 hours

 ConditionsComfort  
Time TempWeatherWind HumidityBarometerVisibility
11:50 AM
Jul 28
75 °FPassing clouds.7 mph69%29.92 "HgN/A
11:20 AM75 °FSunny.9 mph69%29.92 "Hg10 mi
10:50 AM73 °FSunny.9 mph69%29.92 "Hg10 mi
10:20 AM72 °FPassing clouds.7 mph73%29.92 "HgN/A
9:50 AM72 °FPassing clouds.7 mph73%29.95 "HgN/A
9:20 AM68 °FSunny.3 mph83%29.95 "Hg10 mi
8:50 AM68 °FClear.2 mph83%29.95 "Hg6 mi
8:20 AM66 °FClear.2 mph88%29.95 "Hg5 mi
7:50 AM64 °FScattered clouds.3 mph88%29.95 "Hg4 mi
7:20 AM64 °FFog.3 mph88%29.95 "Hg3 mi
6:50 AM63 °FFog.2 mph94%29.95 "Hg3 mi
6:20 AM61 °FFog.3 mph100%29.95 "Hg3 mi
5:50 AM61 °FFog.2 mph100%29.95 "Hg3 mi
9:50 PM
Jul 27
68 °FSunny.7 mph78%30.01 "Hg10 mi
9:20 PM70 °FSunny.8 mph69%29.98 "Hg10 mi
8:50 PM72 °FSunny.7 mph65%29.98 "Hg10 mi
8:20 PM73 °FSunny.7 mph61%29.98 "Hg10 mi
7:50 PM75 °FSunny.10 mph57%29.98 "Hg10 mi
7:20 PM75 °FSunny.10 mph61%29.98 "Hg10 mi
6:50 PM75 °FPassing clouds.10 mph54%29.98 "HgN/A
6:20 PM77 °FPassing clouds.13 mph61%29.95 "HgN/A
5:50 PM77 °FPassing clouds.14 mph57%29.95 "HgN/A
5:20 PM77 °FScattered clouds.14 mph61%29.98 "HgN/A
4:50 PM77 °FScattered clouds.14 mph61%29.98 "HgN/A
4:20 PM77 °FScattered clouds.13 mph61%29.98 "HgN/A
3:50 PM79 °FScattered clouds.8 mph58%29.98 "HgN/A
3:20 PM79 °FScattered clouds.8 mph54%29.98 "HgN/A
2:50 PM79 °FScattered clouds.6 mph58%29.98 "HgN/A
2:20 PM77 °FScattered clouds.6 mph57%29.98 "HgN/A
1:50 PM77 °FScattered clouds.8 mph57%29.98 "HgN/A
1:20 PM77 °FScattered clouds.6 mph61%30.01 "HgN/A
12:50 PM75 °FPassing clouds.8 mph61%30.01 "HgN/A
12:20 PM75 °FPassing clouds.5 mph65%30.01 "HgN/A
Weather by CustomWeather, © 2014

See weather overviewHow to use our weather pages